• In Kazakhstan
  • List of Countries
  • For 7 days
  • Water Temperature
  • Weather Map
  • News
  • Weather Widgets
  • user-avatar
    Login

    Hourly Weather Berat

    Today, 22 September, Sunday

    Time Temperature Precipitation Wind Pressure Humidity
    00:00 +19°C° 0 mm 1 mps 749 mmHg 60%
    01:00 +17°C° 0 mm 2 mps 749 mmHg 61%
    02:00 +17°C° 0 mm 2 mps 749 mmHg 63%
    03:00 +17°C° 0 mm 2 mps 749 mmHg 64%
    04:00 +18°C° 0 mm 1 mps 748 mmHg 66%
    05:00 +19°C° 0 mm 1 mps 748 mmHg 63%
    06:00 +20°C° 0 mm 1 mps 748 mmHg 61%
    07:00 +21°C° 0 mm 1 mps 748 mmHg 59%
    08:00 +22°C° 0 mm 1 mps 749 mmHg 54%
    09:00 +24°C° 0 mm 1 mps 749 mmHg 48%
    10:00 +26°C° 0 mm 1 mps 749 mmHg 42%
    11:00 +27°C° 0 mm 2 mps 749 mmHg 40%
    12:00 +28°C° 0 mm 2 mps 748 mmHg 38%
    13:00 +28°C° 0 mm 3 mps 748 mmHg 36%
    14:00 +28°C° 0 mm 3 mps 747 mmHg 40%
    15:00 +27°C° 0 mm 3 mps 747 mmHg 45%
    16:00 +26°C° 0 mm 3 mps 746 mmHg 49%
    17:00 +25°C° 0 mm 2 mps 747 mmHg 57%
    18:00 +23°C° 0 mm 1 mps 747 mmHg 64%
    19:00 +19°C° 0 mm 0 mps 747 mmHg 72%
    20:00 +19°C° 0 mm 0 mps 747 mmHg 73%
    21:00 +20°C° 0 mm 1 mps 747 mmHg 74%
    22:00 +20°C° 0 mm 1 mps 747 mmHg 75%
    23:00 +20°C° 0 mm 1 mps 747 mmHg 74%

    Tomorrow, 23 September, Monday

    Time Temperature Precipitation Wind Pressure Humidity
    00:00 +20°C° 0 mm 1 mps 747 mmHg 73%
    01:00 +20°C° 0 mm 1 mps 747 mmHg 72%
    02:00 +20°C° 0 mm 1 mps 746 mmHg 71%
    03:00 +20°C° 0 mm 1 mps 746 mmHg 71%
    04:00 +20°C° 0 mm 1 mps 746 mmHg 71%
    05:00 +20°C° 0 mm 1 mps 746 mmHg 67%
    06:00 +21°C° 0 mm 1 mps 745 mmHg 63%
    07:00 +22°C° 0 mm 1 mps 745 mmHg 58%
    08:00 +24°C° 0 mm 1 mps 745 mmHg 54%
    09:00 +25°C° 0 mm 1 mps 745 mmHg 50%
    10:00 +26°C° 0 mm 1 mps 745 mmHg 46%
    11:00 +26°C° 0 mm 2 mps 745 mmHg 47%
    12:00 +27°C° 0 mm 2 mps 745 mmHg 48%
    13:00 +27°C° 0 mm 3 mps 744 mmHg 49%
    14:00 +26°C° 0 mm 2 mps 744 mmHg 51%
    15:00 +26°C° 0 mm 2 mps 743 mmHg 53%
    16:00 +26°C° 0 mm 1 mps 743 mmHg 56%
    17:00 +24°C° 0 mm 1 mps 743 mmHg 60%
    18:00 +23°C° 0 mm 1 mps 743 mmHg 63%
    19:00 +22°C° 0 mm 1 mps 743 mmHg 67%
    20:00 +22°C° 0.1 mm 1 mps 743 mmHg 71%
    21:00 +21°C° 0.1 mm 2 mps 743 mmHg 74%
    22:00 +21°C° 0.1 mm 2 mps 743 mmHg 78%
    23:00 +21°C° 0.7 mm 2 mps 742 mmHg 80%

    Day after tomorrow, 24 September, Tuesday

    Time Temperature Precipitation Wind Pressure Humidity
    00:00 +20°C° 0.7 mm 2 mps 742 mmHg 82%
    01:00 +20°C° 0.7 mm 3 mps 742 mmHg 85%
    02:00 +20°C° 0.6 mm 3 mps 741 mmHg 85%
    03:00 +20°C° 0.6 mm 2 mps 741 mmHg 86%
    04:00 +20°C° 0.6 mm 2 mps 740 mmHg 87%
    05:00 +21°C° 0.7 mm 2 mps 740 mmHg 86%
    06:00 +21°C° 0.7 mm 2 mps 740 mmHg 84%
    07:00 +23°C° 0.7 mm 2 mps 740 mmHg 83%
    08:00 +24°C° 1.2 mm 2 mps 740 mmHg 78%
    09:00 +25°C° 1.2 mm 3 mps 740 mmHg 72%
    10:00 +26°C° 1.2 mm 3 mps 740 mmHg 67%
    11:00 +26°C° 0.8 mm 3 mps 740 mmHg 65%
    12:00 +26°C° 0.8 mm 3 mps 740 mmHg 64%
    13:00 +26°C° 0.8 mm 3 mps 740 mmHg 62%
    14:00 +25°C° 0.2 mm 3 mps 740 mmHg 62%
    15:00 +25°C° 0.2 mm 3 mps 739 mmHg 61%
    16:00 +24°C° 0.2 mm 3 mps 739 mmHg 60%
    17:00 +23°C° 0 mm 2 mps 740 mmHg 67%
    18:00 +21°C° 0 mm 2 mps 740 mmHg 74%
    19:00 +20°C° 0 mm 1 mps 740 mmHg 81%
    20:00 +20°C° 0 mm 1 mps 740 mmHg 83%
    21:00 +20°C° 0 mm 1 mps 740 mmHg 85%
    22:00 +17°C° 0 mm 0 mps 741 mmHg 87%
    23:00 +17°C° 0 mm 0 mps 741 mmHg 87%

    25 September, Wednesday

    Time Temperature Precipitation Wind Pressure Humidity
    00:00 +17°C° 0 mm 0 mps 741 mmHg 88%
    01:00 +16°C° 0 mm 0 mps 740 mmHg 88%
    02:00 +16°C° 0 mm 0 mps 740 mmHg 88%
    03:00 +16°C° 0 mm 0 mps 740 mmHg 88%
    04:00 +16°C° 0 mm 0 mps 740 mmHg 88%
    05:00 +17°C° 0 mm 0 mps 741 mmHg 84%
    06:00 +17°C° 0 mm 0 mps 741 mmHg 80%
    07:00 +18°C° 0 mm 0 mps 741 mmHg 76%
    08:00 +22°C° 0 mm 1 mps 741 mmHg 69%
    09:00 +23°C° 0 mm 1 mps 741 mmHg 62%
    10:00 +24°C° 0 mm 2 mps 741 mmHg 55%
    11:00 +25°C° 0 mm 2 mps 741 mmHg 53%
    12:00 +26°C° 0 mm 3 mps 741 mmHg 51%
    13:00 +26°C° 0 mm 3 mps 741 mmHg 49%
    14:00 +26°C° 0 mm 3 mps 741 mmHg 51%
    15:00 +25°C° 0 mm 3 mps 741 mmHg 54%
    16:00 +25°C° 0 mm 3 mps 741 mmHg 57%
    17:00 +24°C° 0 mm 2 mps 741 mmHg 62%
    18:00 +22°C° 0 mm 1 mps 741 mmHg 68%
    19:00 +21°C° 0 mm 1 mps 742 mmHg 74%
    20:00 +21°C° 0 mm 1 mps 742 mmHg 75%
    21:00 +20°C° 0 mm 1 mps 742 mmHg 75%
    22:00 +20°C° 0 mm 1 mps 742 mmHg 75%
    23:00 +20°C° 0 mm 1 mps 742 mmHg 74%

    26 September, Thursday

    Time Temperature Precipitation Wind Pressure Humidity
    00:00 +20°C° 0 mm 1 mps 742 mmHg 73%
    01:00 +21°C° 0 mm 1 mps 742 mmHg 73%
    02:00 +21°C° 0 mm 1 mps 742 mmHg 73%
    03:00 +21°C° 0 mm 1 mps 742 mmHg 73%
    04:00 +21°C° 0 mm 1 mps 742 mmHg 73%
    05:00 +21°C° 0 mm 1 mps 742 mmHg 72%
    06:00 +21°C° 0 mm 1 mps 742 mmHg 71%
    07:00 +22°C° 0 mm 1 mps 742 mmHg 70%
    08:00 +23°C° 0 mm 1 mps 742 mmHg 66%
    09:00 +24°C° 0 mm 1 mps 743 mmHg 62%
    10:00 +25°C° 0 mm 1 mps 743 mmHg 57%
    11:00 +26°C° 0.1 mm 2 mps 743 mmHg 56%
    12:00 +26°C° 0.1 mm 3 mps 743 mmHg 55%
    13:00 +27°C° 0.1 mm 3 mps 743 mmHg 54%
    14:00 +27°C° 0.1 mm 3 mps 742 mmHg 55%
    15:00 +26°C° 0.1 mm 3 mps 742 mmHg 55%
    16:00 +26°C° 0.1 mm 3 mps 742 mmHg 56%
    17:00 +24°C° 0 mm 2 mps 742 mmHg 62%
    18:00 +23°C° 0 mm 1 mps 743 mmHg 68%
    19:00 +20°C° 0 mm 0 mps 743 mmHg 75%
    20:00 +19°C° 0 mm 0 mps 743 mmHg 75%
    21:00 +19°C° 0 mm 0 mps 744 mmHg 76%
    22:00 +19°C° 0 mm 0 mps 744 mmHg 77%
    23:00 +18°C° 0 mm 0 mps 744 mmHg 78%

    27 September, Friday

    Time Temperature Precipitation Wind Pressure Humidity
    00:00 +18°C° 0 mm 0 mps 744 mmHg 78%
    01:00 +20°C° 0 mm 1 mps 744 mmHg 79%
    02:00 +20°C° 0 mm 1 mps 744 mmHg 79%
    03:00 +20°C° 0 mm 1 mps 744 mmHg 79%
    04:00 +19°C° 0 mm 1 mps 744 mmHg 79%
    05:00 +20°C° 0 mm 1 mps 744 mmHg 76%
    06:00 +21°C° 0 mm 1 mps 744 mmHg 74%
    07:00 +21°C° 0 mm 1 mps 745 mmHg 71%
    08:00 +23°C° 0 mm 1 mps 745 mmHg 65%
    09:00 +25°C° 0 mm 1 mps 745 mmHg 59%
    10:00 +27°C° 0 mm 1 mps 746 mmHg 53%
    11:00 +27°C° 0 mm 2 mps 745 mmHg 51%
    12:00 +28°C° 0 mm 2 mps 745 mmHg 48%
    13:00 +28°C° 0 mm 3 mps 745 mmHg 46%
    14:00 +28°C° 0 mm 3 mps 744 mmHg 50%
    15:00 +27°C° 0 mm 3 mps 744 mmHg 53%
    16:00 +26°C° 0 mm 3 mps 744 mmHg 57%
    17:00 +25°C° 0 mm 2 mps 744 mmHg 63%
    18:00 +23°C° 0 mm 1 mps 745 mmHg 70%
    19:00 +22°C° 0 mm 1 mps 745 mmHg 76%
    20:00 +21°C° 0 mm 1 mps 745 mmHg 76%
    21:00 +21°C° 0 mm 1 mps 745 mmHg 77%
    22:00 +19°C° 0 mm 0 mps 746 mmHg 77%
    23:00 +19°C° 0 mm 0 mps 746 mmHg 78%
    Show more